Weather History for Flora, IL

Change the Weather History Date:

Monday, December 3, 2012

  Actual Average (KEVV) Record (KEVV)
Temperature  
Mean Temperature 66 °F 39 °F  
Max Temperature 72 °F 48 °F 76 °F (1982)
Min Temperature 60 °F 30 °F 4 °F (1929)
Degree Days  
Heating Degree Days 0 26  
Month to date heating degree days 77  
Since 1 July heating degree days 938  
Cooling Degree Days 1 0  
Month to date cooling degree days 0  
Year to date cooling degree days 1397  
Growing Degree Days 16 (Base 50)    
Moisture  
Dew Point 59 °F    
Average Humidity 82    
Maximum Humidity 96    
Minimum Humidity 65    
Precipitation  
Precipitation 0.00 in 0.13 in 2.25 in (1982)
Month to date precipitation 0.39  
Year to date precipitation 41.94  
Snow  
Snow 0.00 in 0.00 in 0.60 in (1957)
Month to date snowfall 0.1  
Since 1 July snowfall 0.4  
Snow Depth -    
Sea Level Pressure  
Sea Level Pressure 30.03 in    
Wind  
Wind Speed 12 mph (South)    
Max Wind Speed 29 mph    
Max Gust Speed 37 mph    
Visibility 9 miles    
Events      
T = Trace of Precipitation, MM = Missing Value Source: NWS Daily Summary

Daily Weather History Graph

Daily Weather History Graph

Search for Another Location

Airport:

Trip Planner

Search our weather history database for the weather conditions in past years. The results will help you decide how hot, cold, wet, or windy it might be!

Date:

Astronomy

Dec. 03, 2012 Rise Set
Actual Time 6:55 AM CST 4:32 PM CST
Civil Twilight 6:25 AM CST 5:01 PM CST
Nautical Twilight 5:52 AM CST 5:34 PM CST
Astronomical Twilight 5:20 AM CST 6:06 PM CST
Moon 9:17 PM CST (12/3) 10:19 AM CST (12/3)
Length of Visible Light 10h 36m
Length of Day
9h 37m
Waning Gibbous, 78% of the Moon is Illuminated
Dec 3
Waning Gibbous
Dec 6
Last Quarter
Dec 13
New
Dec 19
First Quarter
Dec 28
Full

Hourly Weather History & Observations

Time (CST) Temp. Dew Point Humidity Pressure Visibility Wind Dir Wind Speed Gust Speed Precip Events Conditions
12:15 AM 61.7 °F 60.4 °F 96% 30.07 in 5.0 mi South 8.1 mph - N/A   Overcast
12:35 AM 62.6 °F 61.0 °F 94% 30.07 in 7.0 mi South 9.2 mph - N/A   Overcast
12:55 AM 63.3 °F 61.5 °F 94% 30.07 in 7.0 mi South 8.1 mph - N/A   Mostly Cloudy
1:15 AM 62.6 °F 60.8 °F 94% 30.08 in 7.0 mi South 8.1 mph - N/A   Scattered Clouds
1:35 AM 62.1 °F 60.3 °F 94% 30.08 in 7.0 mi South 8.1 mph - N/A   Scattered Clouds
1:55 AM 61.7 °F 59.9 °F 94% 30.08 in 7.0 mi South 6.9 mph - N/A   Scattered Clouds
2:15 AM 61.7 °F 60.1 °F 94% 30.08 in 7.0 mi South 9.2 mph - N/A   Scattered Clouds
2:35 AM 61.7 °F 60.3 °F 95% 30.07 in 7.0 mi South 8.1 mph - N/A   Scattered Clouds
2:55 AM 61.7 °F 60.3 °F 95% 30.07 in 7.0 mi South 9.2 mph - N/A   Clear
3:15 AM 61.7 °F 60.3 °F 95% 30.07 in 7.0 mi South 9.2 mph - N/A   Clear
3:35 AM 63.5 °F 61.7 °F 94% 30.07 in 7.0 mi South 10.4 mph - N/A   Scattered Clouds
3:55 AM 63.7 °F 61.3 °F 92% 30.06 in 7.0 mi South 9.2 mph - N/A   Scattered Clouds
4:15 AM 63.5 °F 61.0 °F 91% 30.06 in 7.0 mi SSW 11.5 mph - N/A   Clear
4:35 AM 63.5 °F 61.2 °F 92% 30.06 in 7.0 mi SSW 11.5 mph 17.3 mph N/A   Clear
4:55 AM 63.5 °F 61.2 °F 92% 30.06 in 7.0 mi SSW 11.5 mph - N/A   Scattered Clouds
5:15 AM 63.5 °F 61.2 °F 92% 30.06 in 7.0 mi South 10.4 mph - N/A   Scattered Clouds
5:35 AM 61.9 °F 60.3 °F 94% 30.06 in 7.0 mi South 10.4 mph - N/A   Clear
5:55 AM 61.9 °F 60.1 °F 94% 30.06 in 7.0 mi South 9.2 mph - N/A   Clear
6:15 AM 62.6 °F 60.4 °F 93% 30.07 in 10.0 mi South 10.4 mph - N/A   Scattered Clouds
6:35 AM 61.7 °F 59.5 °F 93% 30.07 in 10.0 mi SSW 9.2 mph 17.3 mph N/A   Scattered Clouds
6:55 AM 61.7 °F 59.5 °F 93% 30.07 in 7.0 mi South 11.5 mph - N/A   Clear
7:15 AM 61.2 °F 59.0 °F 93% 30.07 in 7.0 mi South 11.5 mph - N/A   Clear
7:35 AM 60.8 °F 59.0 °F 94% 30.07 in 7.0 mi South 9.2 mph - N/A   Clear
7:55 AM 61.7 °F 59.9 °F 94% 30.07 in 10.0 mi South 11.5 mph - N/A   Clear
8:15 AM 62.6 °F 59.9 °F 91% 30.07 in 10.0 mi South 12.7 mph 18.4 mph N/A   Clear
8:35 AM 63.5 °F 60.3 °F 89% 30.07 in 10.0 mi South 11.5 mph 17.3 mph N/A   Scattered Clouds
8:55 AM 63.9 °F 60.1 °F 87% 30.06 in 10.0 mi South 12.7 mph 17.3 mph N/A   Scattered Clouds
9:15 AM 65.1 °F 60.6 °F 85% 30.06 in 10.0 mi South 15.0 mph 21.9 mph N/A   Clear
9:35 AM 65.8 °F 60.3 °F 82% 30.07 in 10.0 mi South 15.0 mph 25.3 mph N/A   Clear
9:55 AM 67.1 °F 60.8 °F 80% 30.06 in 10.0 mi SSW 16.1 mph 23.0 mph N/A   Scattered Clouds
10:15 AM 68.0 °F 60.8 °F 78% 30.06 in 10.0 mi SSW 18.4 mph - N/A   Scattered Clouds
10:35 AM 68.9 °F 60.6 °F 75% 30.05 in 10.0 mi SSW 16.1 mph 25.3 mph N/A   Clear
10:55 AM 71.4 °F 61.2 °F 70% 30.04 in 10.0 mi SSW 17.3 mph 23.0 mph N/A   Clear
11:15 AM 71.4 °F 60.8 °F 69% 30.04 in 10.0 mi SSW 20.7 mph 25.3 mph N/A   Clear
11:35 AM 71.6 °F 60.8 °F 69% 30.03 in 10.0 mi SSW 21.9 mph 28.8 mph N/A   Clear
11:55 AM 72.1 °F 59.9 °F 65% 30.03 in 10.0 mi SSW 20.7 mph 26.5 mph N/A   Scattered Clouds
12:15 PM 72.0 °F 59.9 °F 66% 30.02 in 10.0 mi SSW 19.6 mph 27.6 mph N/A   Clear
12:35 PM 71.6 °F 59.7 °F 66% 30.01 in 10.0 mi South 25.3 mph 29.9 mph N/A   Clear
12:55 PM 71.6 °F 59.4 °F 65% 30.01 in 10.0 mi SSW 24.2 mph 31.1 mph N/A   Clear
1:15 PM 70.7 °F 58.6 °F 66% 30.00 in 10.0 mi SSW 24.2 mph 35.7 mph N/A   Clear
1:35 PM 69.8 °F 59.0 °F 68% 30.00 in 10.0 mi South 19.6 mph 31.1 mph N/A   Clear
1:55 PM 70.0 °F 59.4 °F 69% 30.00 in 10.0 mi SSW 23.0 mph 34.5 mph N/A   Scattered Clouds
2:15 PM 70.2 °F 58.8 °F 67% 30.00 in 10.0 mi SSW 26.5 mph 34.5 mph N/A   Scattered Clouds
2:35 PM 69.6 °F 58.3 °F 67% 30.00 in 10.0 mi SSW 28.8 mph 36.8 mph N/A   Clear
2:55 PM 69.1 °F 58.6 °F 69% 29.99 in 10.0 mi South 20.7 mph 31.1 mph N/A   Clear
3:15 PM 68.9 °F 58.5 °F 69% 29.99 in 10.0 mi South 19.6 mph 25.3 mph N/A   Clear
3:35 PM 69.8 °F 59.0 °F 68% 29.99 in 10.0 mi South 20.7 mph 32.2 mph N/A   Clear
3:55 PM 68.0 °F 58.1 °F 71% 29.98 in 10.0 mi South 20.7 mph 31.1 mph N/A   Clear
4:15 PM 67.6 °F 58.1 °F 71% 29.99 in 10.0 mi South 18.4 mph 26.5 mph N/A   Clear
4:35 PM 67.1 °F 58.1 °F 73% 29.99 in 10.0 mi South 18.4 mph 23.0 mph N/A   Clear
4:55 PM 67.1 °F 58.1 °F 73% 30.00 in 10.0 mi South 16.1 mph 23.0 mph N/A   Scattered Clouds
5:15 PM 67.3 °F 58.1 °F 72% 30.00 in 10.0 mi SSW 16.1 mph 25.3 mph N/A   Scattered Clouds
5:55 PM 65.8 °F 58.3 °F 77% 30.01 in 10.0 mi South 9.2 mph - N/A   Mostly Cloudy
6:15 PM 63.5 °F 58.1 °F 83% 30.01 in 10.0 mi South 8.1 mph - N/A   Scattered Clouds
6:35 PM 63.9 °F 58.3 °F 82% 30.01 in 10.0 mi South 11.5 mph - N/A   Scattered Clouds
6:55 PM 63.5 °F 58.5 °F 84% 29.99 in 10.0 mi South 13.8 mph - N/A   Scattered Clouds
7:15 PM 63.7 °F 58.5 °F 83% 29.99 in 10.0 mi South 13.8 mph - N/A   Clear
7:35 PM 62.8 °F 58.1 °F 85% 30.02 in 10.0 mi SSW 9.2 mph - N/A   Clear
7:55 PM 63.5 °F 58.8 °F 85% 30.02 in 10.0 mi SSW 8.1 mph - N/A   Mostly Cloudy
8:15 PM 63.5 °F 58.5 °F 84% 30.02 in 10.0 mi South 6.9 mph - N/A   Mostly Cloudy
8:35 PM 64.0 °F 59.0 °F 84% 30.02 in 10.0 mi South 9.2 mph - N/A   Overcast
8:55 PM 63.7 °F 58.5 °F 83% 30.01 in 10.0 mi South 10.4 mph - N/A   Mostly Cloudy
9:15 PM 63.5 °F 58.6 °F 84% 30.02 in 10.0 mi South 10.4 mph - N/A   Mostly Cloudy
9:35 PM 63.5 °F 58.6 °F 84% 30.00 in 10.0 mi South 17.3 mph - N/A   Scattered Clouds
9:55 PM 63.5 °F 57.0 °F 79% 30.01 in 10.0 mi South 12.7 mph - N/A   Clear
10:15 PM 63.5 °F 56.5 °F 78% 30.01 in 10.0 mi South 13.8 mph - N/A   Clear
10:35 PM 63.5 °F 56.1 °F 77% 30.01 in 10.0 mi South 12.7 mph - N/A   Clear
10:55 PM 63.1 °F 55.9 °F 77% 30.01 in 10.0 mi South 11.5 mph - N/A   Clear
11:15 PM 62.1 °F 55.0 °F 78% 30.00 in 10.0 mi South 11.5 mph - N/A   Clear
11:35 PM 61.7 °F 54.7 °F 78% 30.01 in 10.0 mi South 8.1 mph - N/A   Clear
11:55 PM 60.8 °F 54.5 °F 80% 30.01 in 10.0 mi South 9.2 mph - N/A   Clear